Location: *
(63.0453°N, 145.6142°W)
Time: 11:15:21
(UTC+00:00)

Daily predictions for brighter satellites

Satellite Brightness Start Highest point End
(mag) Time Altitude Azimuth Time Altitude Azimuth Time Altitude Azimuth
Cosmos 1862 Rocket 3.8 12:02:11 20° S 12:05:13 68° E 12:09:41 10° NNE
Tsikada Rocket 4.3 12:01:40 14° S 12:07:18 69° E 12:13:41 10° NNE
NPP 3.7 12:02:37 10° NNE 12:08:03 82° ESE 12:12:01 19° SSW
Cosmos 2285 Rocket 4.1 12:06:14 21° SSW 12:10:46 79° ESE 12:17:14 10° NE
CZ-2D R/B 2.2 12:05:38 10° NNE 12:11:10 90° WSW 12:15:08 20° SSW
COSMOS 2487 3.1 12:10:15 25° WSW 12:11:56 46° NW 12:15:19 10° NNE
Cosmos 2333 Rocket 3.5 12:08:08 10° WNW 12:12:06 20° WSW 12:13:15 19° WSW
Cosmos 1782 Rocket 3.6 12:08:44 10° NNW 12:13:08 83° ENE 12:17:29 10° SSE
Cosmos 1833 4.3 12:13:12 21° SW 12:17:15 84° NW 12:23:01 10° NE
USA 234 3.6 12:11:08 10° SE 12:17:19 43° SSW 12:23:31 10° W
SL-16 R/B 3.3 12:15:59 20° SW 12:19:28 34° W 12:25:05 10° NNW
Cosmos 1603 4.0 12:14:02 10° NW 12:19:41 72° NE 12:25:18 10° SE
Cosmos 2237 Rocket 2.8 12:15:12 10° NW 12:20:19 36° WSW 12:24:57 12° S
Cosmos 1607 4.1 12:14:14 10° W 12:20:29 77° N 12:26:51 10° ENE
Meteor 1-10 Rocket 4.3 12:17:54 20° SSW 12:21:46 70° WNW 12:27:23 10° NNE
SJ 16-02 1.3 12:19:08 23° SSW 12:21:53 87° ESE 12:26:19 10° NE
Cosmos 2242 Rocket 4.0 12:19:42 13° S 12:23:41 63° E 12:28:14 10° NNE
Meteor 1-28 Rocket 3.1 12:22:05 10° SSE 12:25:50 82° WSW 12:29:39 10° NNW
Cosmos 405 3.2 12:24:28 18° S 12:26:57 66° ESE 12:30:29 10° NNE
Okean 1-7 4.0 12:23:47 10° SSE 12:27:59 45° E 12:32:12 10° NNE
ATLAS 5 CENTAUR R/B 2.2 12:23:11 10° WNW 12:28:17 58° SSW 12:34:17 10° SE
Cosmos 1184 Rocket 4.0 12:26:04 10° NW 12:28:50 25° W 12:29:33 23° WSW
Cosmos 1703 Rocket 4.3 12:25:57 10° S 12:30:18 52° E 12:34:40 10° NNE
Cosmos 2228 Rocket 4.4 12:27:39 16° WSW 12:30:30 29° NW 12:34:32 10° N
Meteor 1-27 Rocket 3.8 12:27:58 17° SSW 12:32:32 82° WNW 12:38:27 10° NNE
CZ-4B R/B 3.4 12:28:06 10° NNE 12:32:56 71° WNW 12:36:28 18° SW
Cosmos 2279 Rocket 4.0 12:27:49 10° NNW 12:34:06 86° W 12:40:22 10° S
CBERS-1 4.1 12:30:07 10° NNE 12:35:18 85° ESE 12:39:43 14° SSW
Cosmos 1818 3.8 12:32:09 10° WNW 12:37:22 47° SW 12:42:34 10° SSE
Cosmos 1812 3.2 12:35:19 21° SW 12:37:36 46° WNW 12:41:22 10° N
IRS-P3 4.3 12:33:28 10° NNE 12:38:51 73° ESE 12:44:04 11° SSW
Cosmos 1689 Rocket 4.2 12:36:13 10° SE 12:38:56 31° ENE 12:41:39 10° N
Cosmos 1908 Rocket 3.9 12:34:53 10° NNW 12:39:05 44° W 12:42:28 15° SSW
Cosmos 1733 Rocket 4.3 12:35:49 10° NNW 12:39:25 25° W 12:41:28 18° SW
Cosmos 1937 Rocket 3.6 12:35:28 16° SSW 12:39:36 74° ESE 12:44:47 10° NE
Cosmos 494 Rocket 4.0 12:34:45 10° NW 12:39:58 63° WSW 12:45:11 10° SSE
H-2A R/B 2.2 12:38:06 10° S 12:42:07 50° WSW 12:46:10 10° NNW
Cosmos 2082 Rocket 3.5 12:37:37 10° WNW 12:42:56 38° N 12:48:16 10° ENE
Cosmos 44 Rocket 3.2 12:41:17 16° WSW 12:45:04 89° NW 12:49:52 10° ENE
Meteor 2-9 Rocket 4.3 12:39:29 10° NNW 12:45:22 78° WSW 12:51:15 10° S
Cosmos 2297 Rocket 3.1 12:44:14 10° S 12:49:34 43° ESE 12:54:54 10° NE
SeaSat 1 2.5 12:44:48 10° SE 12:49:46 89° NE 12:54:45 10° NW
SL-08 R/B 3.9 12:46:20 12° SSW 12:50:40 40° W 12:55:22 10° NNW
Cosmos 1536 4.3 12:47:48 10° NW 12:50:50 21° W 12:52:32 16° WSW
Cosmos 724 4.4 12:46:28 11° WSW 12:52:03 77° NNW 12:57:55 10° ENE
Cosmos 405 Rocket 4.4 12:51:09 10° NW 12:53:37 17° W 12:54:46 15° WSW
SAR-Lupe-4 3.5 12:50:14 10° S 12:53:48 65° WSW 12:57:23 10° NNW
Cosmos 1898 Rocket 3.5 12:49:37 16° SW 12:53:51 80° NW 12:59:07 10° NE
CZ-4C R/B 3.1 12:51:44 12° S 12:54:25 42° WSW 12:57:29 10° NNW
Cosmos 1833 Rocket 4.1 12:49:56 10° WNW 12:55:11 38° N 13:00:27 10° ENE
Cosmos 2219 Rocket 4.0 12:54:26 10° WNW 12:56:11 11° W 12:57:12 11° WSW
SL-19 R/B 4.2 12:54:04 10° NNE 12:57:22 58° WNW 13:00:18 15° SW
Cosmos 1269 Rocket 4.0 12:52:20 10° NW 12:57:37 63° WSW 13:02:52 10° SSE
Cosmos 2219 3.7 12:52:29 11° SSW 12:57:58 56° ESE 13:03:37 10° NE
Lacrosse 5 rocket 2.2 12:56:26 16° SW 12:58:49 31° SSE 13:02:24 10° ESE
Cosmos 990 Rocket 4.0 12:54:46 15° SW 12:59:02 75° NW 13:04:16 10° NE
Genesis I 3.2 12:59:23 13° WSW 13:02:51 83° NNW 13:06:46 10° ENE
Cosmos 839 Rocket 4.5 12:57:42 10° WSW 13:04:13 79° NNW 13:12:18 10° ENE
Cosmos 2180 Rocket 4.5 12:59:28 10° NNW 13:05:38 71° W 13:11:51 10° S
Cosmos 1300 Rocket 3.5 13:02:39 10° NNW 13:07:01 85° WSW 13:11:20 10° SSE
Cosmos 2251 Rocket 3.8 13:05:27 10° NW 13:10:53 77° NE 13:16:15 10° SE
SAR-Lupe-1 4.3 13:07:42 10° S 13:11:14 50° WSW 13:14:47 10° NNW
AQUA 4.3 13:08:33 10° NNE 13:13:08 47° WNW 13:17:23 12° SW
EP 3 3.9 13:11:47 14° W 13:13:35 84° N 13:16:15 10° E
Okean 2 Rocket 3.1 13:09:43 10° NNW 13:14:12 68° W 13:18:41 10° S
IRS-1D 3.7 13:09:33 10° NNE 13:14:29 60° WNW 13:19:24 10° SW
Sich 1 Rocket 3.8 13:10:21 10° NNW 13:14:36 48° W 13:18:49 10° S
CZ-4B R/B 1.4 13:11:16 10° SSE 13:14:45 72° WSW 13:18:14 10° NNW
Cosmos 2221 Rocket 4.5 13:10:51 10° S 13:15:08 51° E 13:19:26 10° NNE
Cosmos 2151 Rocket 3.5 13:11:07 10° NNW 13:15:34 84° WSW 13:19:58 10° S
Cosmos 2227 Rocket 2.8 13:10:28 10° SSW 13:15:57 53° ESE 13:21:28 10° NE
ADEOS II 2.1 13:10:44 10° NNE 13:16:01 73° WNW 13:21:16 10° SSW
Cosmos 1943 3.2 13:10:22 10° NW 13:16:06 80° SW 13:21:50 10° SE
NOSS 7 (D) 3.8 13:14:18 10° W 13:17:00 87° N 13:19:49 10° E
Cosmos 389 Rocket 3.7 13:14:10 10° S 13:17:32 43° E 13:20:54 10° NNE
ERS-2 3.9 13:16:35 13° WSW 13:18:10 16° W 13:20:28 10° NW
COBE Rocket 3.9 13:17:21 10° S 13:21:58 53° W 13:26:33 10° NNW
Cosmos 1125 Rocket 4.4 13:17:07 10° S 13:22:14 50° ESE 13:27:22 10° NE
Okean 1 3.3 13:21:07 10° SSW 13:25:06 72° WNW 13:29:06 10° NNE
Cosmos 1515 3.8 13:21:41 10° S 13:25:29 78° ESE 13:29:19 10° NNE
Resurs 1-4 Rocket 2.9 13:21:35 10° NNE 13:26:27 38° NW 13:31:16 10° WSW
Cosmos 1544 3.7 13:24:05 10° NNW 13:27:28 36° W 13:30:50 10° SSW
Landsat 5 4.1 13:24:30 10° SSW 13:27:56 30° W 13:31:26 10° NNW
Cosmos 1975 3.6 13:26:11 10° NNW 13:29:48 32° W 13:33:24 10° SSW
IDEFIX/ARIANE 42P 2.9 13:25:28 10° NNE 13:30:40 68° ESE 13:35:52 10° S
Cosmos 44 3.3 13:26:32 10° WNW 13:30:54 70° N 13:35:22 10° E
Timation 2 Rocket 4.3 13:25:01 10° SW 13:31:56 85° NW 13:38:53 10° NE
ATLAS 3B R/B 4.5 13:27:10 10° S 13:32:19 24° ESE 13:37:29 10° ENE
Cosmos 2150 Rocket 4.3 13:27:28 10° SSW 13:32:55 77° ESE 13:38:26 10° NE
Cosmos 2298 Rocket 4.2 13:28:04 10° SSW 13:33:25 81° ESE 13:38:46 10° NE
Cosmos 1743 4.2 13:31:40 10° NW 13:34:33 20° W 13:37:25 10° SW
SL-16 R/B 3.1 13:35:46 10° NW 13:40:23 26° WSW 13:45:00 10° SSW
IRS-1C 4.4 13:35:36 10° NNE 13:40:52 58° WNW 13:46:06 10° SW
ARIANE 5 R/B 2.7 13:36:56 10° NNE 13:42:07 66° WNW 13:47:18 10° SW
Spot 4 Rocket 4.1 13:37:26 10° NNE 13:42:38 78° WNW 13:47:48 10° SSW
CZ-2C R/B 2.9 13:38:56 10° NNE 13:43:03 89° W 13:47:05 10° SSW
CZ-2D R/B 3.3 13:46:00 10° NNE 13:50:47 32° NW 13:55:34 10° WSW
Cosmos 1356 4.1 13:47:58 10° NNW 13:51:08 34° W 13:54:16 10° SSW
CZ-2C R/B 3.5 13:46:54 10° NNE 13:51:21 44° E 13:55:43 10° S
Aureole 3 Rocket 3.9 13:46:52 10° NNW 13:52:39 67° ENE 13:56:46 10° SSE
CZ-2D R/B 3.7 13:48:24 10° NNE 13:52:40 62° WNW 13:56:49 10° SW
Cosmos 2082 4.3 13:47:17 10° SSW 13:52:54 59° ESE 13:58:33 10° NE
USA 238 DEB 4.2 13:48:12 10° SW 13:54:46 55° SE 14:01:38 10° ENE
USA 238 4.3 13:48:18 10° SW 13:54:52 55° SE 14:01:45 10° ENE
